Voltar ao catálogo

FENGYUN 1C DEB

AtivoPO
NORAD 30686·DEBRIS·🇨🇳 China

Lançado May 10, 1999 de Taiyuan Satellite Launch Center

Loading…

Próximas Passagens (próximas 24 horas)

TLE

AtualizadoSource: Space-Track

Época: Sep 14, 2026, 14:18 UTC

1 30686U 99025AQU 26257.59597483  .00003242  00000-0  40728-3 0  9995
2 30686  99.0058 128.2384 0137399 340.2443  48.8567 14.76518595 36701

Acompanhe FENGYUN 1C DEB em tempo real com AllMySat

Download on the App Store